Brisbane, Australia

5:26 PM AEST on January 23, 2017 (GMT +1000)
Brisbane

Weather History for 94578 - October, 2013

Change the Weather History Date:

Wednesday, October 16, 2013

  Actual Average Record
Temperature  
Mean Temperature 69 °F -  
Max Temperature 77 °F 80 °F - ()
Min Temperature 61 °F 63 °F - ()
Cooling Degree Days 4    
Growing Degree Days 19 (Base 50)    
Moisture  
Dew Point 57 °F    
Average Humidity 63    
Maximum Humidity 83    
Minimum Humidity 41    
Precipitation  
Precipitation 0.00 in 0.14 in - ()
Sea Level Pressure  
Sea Level Pressure 30.15 in    
Wind  
Wind Speed 10 mph ()    
Max Wind Speed 22 mph    
Max Gust Speed 30 mph    
Visibility 8.0 miles    
Events      
T = Trace of Precipitation, MM = Missing Value Source: Averaged Metar Reports

Daily Weather History Graph

Daily Weather History Graph

Search for Another Location

Airport or City:

Trip Planner

Search our weather history database for the weather conditions in past years. The results will help you decide how hot, cold, wet, or windy it might be!

Date:

Astronomy

Oct. 16, 2013 Rise Set
Actual Time 5:10 AM AEST 5:55 PM AEST
Civil Twilight 4:47 AM AEST 6:19 PM AEST
Nautical Twilight 4:19 AM AEST 6:47 PM AEST
Astronomical Twilight 3:50 AM AEST 7:16 PM AEST
Moon 3:18 PM AEST (10/16) 3:01 AM AEST (10/16)
Length of Visible Light 13h 32m
Length of Day
12h 44m
Waxing Gibbous, 90% of the Moon is Illuminated
Oct 16
Waxing Gibbous
Oct 19
Full
Oct 27
Last Quarter
Nov 3
New
Nov 10
First Quarter

Hourly Weather History & Observations

Time (AEST) Temp. Dew Point Humidity Pressure Visibility Wind Dir Wind Speed Gust Speed Precip Events Conditions
12:00 AM 69 °F 56 °F 53% 30.18 in 19 mi North 10.4 mph - -   Partly Cloudy
12:00 AM 68.0 °F 55.4 °F 64% 30.15 in 6.2 mi North 10.4 mph - N/A   Mostly Cloudy
12:30 AM 66.2 °F 57.2 °F 73% 30.15 in 6.2 mi NW 5.8 mph - N/A   Scattered Clouds
1:00 AM 65 °F 57 °F 69% 30.16 in - NW 3.5 mph - -  
1:00 AM 66.2 °F 57.2 °F 73% 30.15 in 6.2 mi NW 3.5 mph - N/A   Mostly Cloudy
1:30 AM 64.4 °F 59.0 °F 83% 30.15 in 6.2 mi West 3.5 mph - N/A   Mostly Cloudy
2:00 AM 64.4 °F 57.2 °F 77% 30.15 in 6.2 mi South 3.5 mph - N/A   Mostly Cloudy
2:30 AM 64.4 °F 57.2 °F 77% 30.12 in 6.2 mi West 5.8 mph - N/A   Scattered Clouds
3:00 AM 62 °F 56 °F 76% 30.15 in 19 mi WSW 3.5 mph - -   Partly Cloudy
3:00 AM 62.6 °F 57.2 °F 82% 30.12 in 6.2 mi WSW 3.5 mph - N/A   Scattered Clouds
3:30 AM 62.6 °F 57.2 °F 82% 30.12 in 6.2 mi Calm Calm - N/A   Scattered Clouds
4:00 AM 64 °F 56 °F 70% 30.15 in - South 3.5 mph - -  
4:00 AM 64.4 °F 57.2 °F 77% 30.12 in 6.2 mi South 3.5 mph - N/A   Scattered Clouds
4:30 AM 62.6 °F 57.2 °F 82% 30.15 in 6.2 mi SW 3.5 mph - N/A   Scattered Clouds
5:00 AM 62.6 °F 55.4 °F 77% 30.15 in 6.2 mi WSW 5.8 mph - N/A   Scattered Clouds
5:30 AM 62.6 °F 55.4 °F 77% 30.15 in 6.2 mi WSW 6.9 mph - N/A   Scattered Clouds
6:00 AM 64 °F 56 °F 69% 30.19 in 19 mi WSW 5.8 mph - -   Mostly Cloudy
6:00 AM 64.4 °F 57.2 °F 77% 30.18 in 6.2 mi WSW 5.8 mph - N/A   Scattered Clouds
6:30 AM 66.2 °F 57.2 °F 73% 30.18 in 6.2 mi WSW 5.8 mph - N/A   Scattered Clouds
7:00 AM 67 °F 57 °F 61% 30.21 in - SSW 2.3 mph - -  
7:00 AM 68.0 °F 57.2 °F 68% 30.18 in 6.2 mi SSW 2.3 mph - N/A   Scattered Clouds
7:30 AM 69.8 °F 57.2 °F 64% 30.21 in 6.2 mi West 4.6 mph - N/A   Scattered Clouds
8:00 AM 71.6 °F 57.2 °F 60% 30.21 in 6.2 mi North 6.9 mph - N/A   Partly Cloudy
8:30 AM 73.4 °F 59.0 °F 61% 30.24 in 6.2 mi North 9.2 mph - N/A   Scattered Clouds
9:00 AM 74 °F 58 °F 46% 30.24 in 19 mi North 9.2 mph - -   Partly Cloudy
9:00 AM 73.4 °F 57.2 °F 57% 30.24 in 6.2 mi North 9.2 mph - N/A   Partly Cloudy
9:30 AM 75.2 °F 57.2 °F 53% 30.24 in 6.2 mi North 12.7 mph - N/A   Partly Cloudy
10:00 AM 75 °F 58 °F 45% 30.24 in - North 12.7 mph - -  
10:00 AM 75.2 °F 57.2 °F 53% 30.24 in 6.2 mi North 12.7 mph - N/A   Partly Cloudy
10:30 AM 77.0 °F 57.2 °F 50% 30.21 in 6.2 mi NNE 15.0 mph - N/A   Partly Cloudy
11:00 AM 75.2 °F 57.2 °F 53% 30.18 in 6.2 mi NNE 17.3 mph - N/A   Partly Cloudy
11:30 AM 75.2 °F 57.2 °F 53% 30.18 in 6.2 mi NNE 18.4 mph - N/A   Scattered Clouds
12:00 PM 76 °F 57 °F 41% 30.18 in 19 mi North 19.6 mph - -   Partly Cloudy
12:00 PM 75.2 °F 57.2 °F 53% 30.18 in 6.2 mi North 19.6 mph - N/A   Mostly Cloudy
12:30 PM 75.2 °F 57.2 °F 53% 30.15 in 6.2 mi North 20.7 mph - N/A   Mostly Cloudy
1:00 PM 75 °F 58 °F 44% 30.15 in - NNE 21.9 mph - -  
1:00 PM 75.2 °F 57.2 °F 53% 30.12 in 6.2 mi NNE 21.9 mph - N/A   Mostly Cloudy
1:30 PM 73.4 °F 57.2 °F 57% 30.12 in 6.2 mi North 20.7 mph - N/A   Mostly Cloudy
2:00 PM 75.2 °F 57.2 °F 53% 30.12 in 6.2 mi NNE 21.9 mph - N/A   Mostly Cloudy
2:30 PM 77.0 °F 57.2 °F 50% 30.09 in 6.2 mi NNE 20.7 mph - N/A   Partly Cloudy
3:00 PM 73 °F 57 °F 46% 30.10 in 19 mi NNE 20.7 mph - -   Partly Cloudy
3:00 PM 73.4 °F 57.2 °F 57% 30.09 in 6.2 mi NNE 20.7 mph - N/A   Mostly Cloudy
3:30 PM 73.4 °F 57.2 °F 57% 30.09 in 6.2 mi NNE 20.7 mph - N/A   Mostly Cloudy
4:00 PM 72 °F 56 °F 48% 30.10 in - North 19.6 mph - -  
4:00 PM 71.6 °F 57.2 °F 60% 30.09 in 6.2 mi North 19.6 mph - N/A   Mostly Cloudy
4:30 PM 71.6 °F 57.2 °F 60% 30.09 in 6.2 mi NNE 19.6 mph - N/A   Mostly Cloudy
5:00 PM 71.6 °F 57.2 °F 60% 30.09 in 6.2 mi NNE 18.4 mph - N/A   Mostly Cloudy
5:30 PM 71.6 °F 57.2 °F 60% 30.12 in - NNE 19.6 mph - N/A   Clear
6:00 PM 70 °F 58 °F 56% 30.13 in 19 mi NNE 18.4 mph - -   Partly Cloudy
6:00 PM 69.8 °F 57.2 °F 64% 30.12 in 6.2 mi North 18.4 mph - N/A   Scattered Clouds
6:30 PM 69.8 °F 59.0 °F 68% 30.12 in 6.2 mi North 20.7 mph - N/A   Partly Cloudy
7:00 PM 70 °F 59 °F 59% 30.14 in - NNE 18.4 mph - -  
7:00 PM 69.8 °F 59.0 °F 68% 30.12 in 6.2 mi NNE 18.4 mph - N/A   Partly Cloudy
7:30 PM 69.8 °F 59.0 °F 68% 30.12 in 6.2 mi North 19.6 mph - N/A   Partly Cloudy
8:00 PM 69.8 °F 59.0 °F 68% 30.15 in 6.2 mi North 19.6 mph - N/A   Partly Cloudy
8:30 PM 69.8 °F 59.0 °F 68% 30.15 in 6.2 mi North 18.4 mph - N/A   Scattered Clouds
9:00 PM 70 °F 58 °F 58% 30.17 in 19 mi North 19.6 mph - -   Partly Cloudy
9:00 PM 69.8 °F 59.0 °F 68% 30.15 in 6.2 mi North 19.6 mph - N/A   Scattered Clouds
9:24 PM 69.8 °F 59.0 °F 68% 30.15 in 6.2 mi North 18.4 mph 29.9 mph N/A   Partly Cloudy
9:30 PM 69.8 °F 57.2 °F 64% 30.15 in 6.2 mi North 19.6 mph - N/A   Partly Cloudy
10:00 PM 70 °F 58 °F 56% 30.16 in - North 19.6 mph - -  
10:00 PM 69.8 °F 57.2 °F 64% 30.15 in 6.2 mi North 19.6 mph - N/A   Partly Cloudy
10:30 PM 69.8 °F 57.2 °F 64% 30.15 in 6.2 mi North 18.4 mph - N/A   Scattered Clouds
11:00 PM 69.8 °F 57.2 °F 64% 30.12 in 6.2 mi North 17.3 mph - N/A   Scattered Clouds
11:30 PM 69.8 °F 57.2 °F 64% 30.12 in 6.2 mi North 18.4 mph - N/A   Scattered Clouds